| time (UTC) | temp F | wind direction | speed knots | gust knots | rain 1hr in | rain 24hr in | rain mn in | humidity % | barometer mb |
| 20260506215531 | 54 | 0 | 0.0 | 0.0 | 0.00 | 0.00 | 0.00 | 68 | 1018.0 |
| 20260506215029 | 55 | 0 | 0.0 | 0.0 | 0.00 | 0.00 | 0.00 | 69 | 1018.0 |
| 20260506214540 | 55 | 0 | 0.0 | 0.0 | 0.00 | 0.00 | 0.00 | 69 | 1018.0 |
| 20260506214031 | 55 | 0 | 0.0 | 0.0 | 0.00 | 0.00 | 0.00 | 70 | 1018.0 |
| 20260506213531 | 56 | 0 | 0.0 | 0.0 | 0.00 | 0.00 | 0.00 | 70 | 1018.0 |
| 20260506213045 | 56 | 0 | 0.0 | 0.0 | 0.00 | 0.00 | 0.00 | 70 | 1018.0 |
| 20260506212531 | 56 | 0 | 0.0 | 1.7 | 0.00 | 0.00 | 0.00 | 70 | 1018.0 |
| 20260506212031 | 56 | 0 | 0.0 | 1.7 | 0.00 | 0.00 | 0.00 | 71 | 1018.0 |
| 20260506211546 | 56 | 55 | 0.0 | 1.7 | 0.00 | 0.00 | 0.00 | 71 | 1018.0 |
| 20260506211030 | 56 | 0 | 0.0 | 1.7 | 0.00 | 0.00 | 0.00 | 71 | 1018.0 |
| 20260506210532 | 56 | 0 | 0.0 | 2.6 | 0.00 | 0.00 | 0.00 | 71 | 1017.9 |
| 20260506210049 | 56 | 0 | 0.9 | 4.3 | 0.00 | 0.00 | 0.00 | 70 | 1017.9 |
| 20260506205531 | 56 | 55 | 1.7 | 4.3 | 0.00 | 0.00 | 0.00 | 69 | 1018.0 |
| 20260506205030 | 55 | 49 | 0.9 | 3.5 | 0.00 | 0.00 | 0.00 | 71 | 1017.9 |
| 20260506204542 | 55 | 0 | 0.0 | 0.0 | 0.00 | 0.00 | 0.00 | 72 | 1017.9 |
| 20260506204029 | 56 | 0 | 0.0 | 0.0 | 0.00 | 0.00 | 0.00 | 72 | 1017.9 |
| 20260506203532 | 56 | 0 | 0.0 | 0.0 | 0.00 | 0.00 | 0.00 | 72 | 1017.9 |
| 20260506203051 | 56 | 0 | 0.0 | 0.0 | 0.00 | 0.00 | 0.00 | 72 | 1017.8 |
| 20260506202529 | 56 | 0 | 0.0 | 0.0 | 0.00 | 0.00 | 0.00 | 72 | 1018.0 |
| 20260506202029 | 56 | 0 | 0.0 | 0.0 | 0.00 | 0.00 | 0.00 | 73 | 1018.0 |
| 20260506201604 | 56 | 0 | 0.0 | 0.0 | 0.00 | 0.00 | 0.00 | 72 | 1018.0 |
| 20260506201032 | 56 | 0 | 0.0 | 0.0 | 0.00 | 0.00 | 0.00 | 72 | 1017.9 |
| 20260506200529 | 56 | 0 | 0.0 | 0.0 | 0.00 | 0.00 | 0.00 | 72 | 1017.9 |
| 20260506200046 | 57 | 0 | 0.0 | 0.0 | 0.00 | 0.00 | 0.00 | 72 | 1017.9 |
| 20260506195531 | 56 | 0 | 0.0 | 0.0 | 0.00 | 0.00 | 0.00 | 73 | 1017.8 |
| 20260506195032 | 57 | 0 | 0.0 | 0.9 | 0.00 | 0.00 | 0.00 | 73 | 1017.8 |
| 20260506194551 | 57 | 0 | 0.0 | 0.9 | 0.00 | 0.00 | 0.00 | 74 | 1017.7 |
| 20260506194030 | 57 | 0 | 0.0 | 0.9 | 0.00 | 0.00 | 0.00 | 74 | 1017.8 |
| 20260506193530 | 57 | 0 | 0.0 | 0.0 | 0.00 | 0.00 | 0.00 | 74 | 1017.7 |
| 20260506193045 | 57 | 0 | 0.0 | 0.0 | 0.00 | 0.00 | 0.00 | 74 | 1017.7 |
| 20260506192530 | 57 | 0 | 0.0 | 0.0 | 0.00 | 0.00 | 0.00 | 74 | 1017.7 |
| 20260506192030 | 57 | 0 | 0.0 | 0.0 | 0.00 | 0.00 | 0.00 | 74 | 1017.7 |
| 20260506191546 | 57 | 0 | 0.0 | 0.0 | 0.00 | 0.00 | 0.00 | 74 | 1017.7 |
| 20260506191029 | 58 | 0 | 0.0 | 0.0 | 0.00 | 0.00 | 0.00 | 74 | 1017.6 |
| 20260506190530 | 58 | 0 | 0.0 | 0.0 | 0.00 | 0.00 | 0.00 | 74 | 1017.6 |
| 20260506190041 | 58 | 0 | 0.0 | 0.0 | 0.00 | 0.00 | 0.00 | 74 | 1017.5 |
| 20260506185531 | 58 | 0 | 0.0 | 1.7 | 0.00 | 0.00 | 0.00 | 74 | 1017.5 |
| 20260506185031 | 58 | 0 | 0.0 | 1.7 | 0.00 | 0.00 | 0.00 | 74 | 1017.4 |
| 20260506184551 | 58 | 0 | 0.0 | 1.7 | 0.00 | 0.00 | 0.00 | 74 | 1017.4 |
| 20260506184030 | 58 | 0 | 0.0 | 2.6 | 0.00 | 0.00 | 0.00 | 74 | 1017.3 |
| 20260506183531 | 59 | 0 | 0.0 | 2.6 | 0.00 | 0.00 | 0.00 | 73 | 1017.3 |
| 20260506183046 | 59 | 224 | 0.0 | 1.7 | 0.00 | 0.00 | 0.00 | 73 | 1017.2 |
| 20260506182530 | 59 | 0 | 0.9 | 1.7 | 0.00 | 0.00 | 0.00 | 73 | 1017.2 |
| 20260506182032 | 59 | 225 | 0.0 | 1.7 | 0.00 | 0.00 | 0.00 | 73 | 1017.1 |
| 20260506181542 | 59 | 0 | 0.0 | 2.6 | 0.00 | 0.00 | 0.00 | 73 | 1017.1 |
| 20260506181032 | 59 | 225 | 0.0 | 2.6 | 0.00 | 0.00 | 0.00 | 73 | 1017.1 |
| 20260506180531 | 60 | 225 | 0.0 | 2.6 | 0.00 | 0.00 | 0.00 | 72 | 1017.1 |
| 20260506180043 | 60 | 0 | 0.0 | 2.6 | 0.00 | 0.00 | 0.00 | 72 | 1017.0 |
| 20260506175533 | 60 | 225 | 0.9 | 2.6 | 0.00 | 0.00 | 0.00 | 72 | 1017.0 |
| 20260506175033 | 60 | 225 | 0.0 | 2.6 | 0.00 | 0.00 | 0.00 | 71 | 1017.1 |
| 20260506174541 | 61 | 0 | 0.0 | 0.0 | 0.00 | 0.00 | 0.00 | 70 | 1016.8 |
| 20260506174035 | 61 | 0 | 0.0 | 0.0 | 0.00 | 0.00 | 0.00 | 69 | 1016.8 |
| 20260506173531 | 62 | 0 | 0.0 | 0.0 | 0.00 | 0.00 | 0.00 | 68 | 1016.9 |
| 20260506173107 | 62 | 0 | 0.0 | 0.0 | 0.00 | 0.00 | 0.00 | 67 | 1016.9 |
| 20260506172531 | 63 | 0 | 0.0 | 0.9 | 0.00 | 0.00 | 0.00 | 66 | 1017.0 |
| 20260506172032 | 64 | 0 | 0.0 | 0.9 | 0.00 | 0.00 | 0.00 | 65 | 1016.9 |
| 20260506171554 | 65 | 0 | 0.0 | 0.9 | 0.00 | 0.00 | 0.00 | 64 | 1016.9 |
| 20260506171030 | 66 | 0 | 0.0 | 1.7 | 0.00 | 0.00 | 0.00 | 63 | 1016.9 |
| 20260506170530 | 67 | 0 | 0.0 | 1.7 | 0.00 | 0.00 | 0.00 | 61 | 1016.9 |
| 20260506170045 | 68 | 229 | 0.0 | 1.7 | 0.00 | 0.00 | 0.00 | 60 | 1016.9 |
| 20260506165533 | 68 | 0 | 0.0 | 0.0 | 0.00 | 0.00 | 0.00 | 59 | 1016.8 |
| 20260506165030 | 69 | 0 | 0.0 | 0.0 | 0.00 | 0.00 | 0.00 | 58 | 1016.9 |
| 20260506164543 | 69 | 0 | 0.0 | 1.7 | 0.00 | 0.00 | 0.00 | 57 | 1016.8 |
| 20260506164029 | 69 | 0 | 0.0 | 1.7 | 0.00 | 0.00 | 0.00 | 56 | 1016.8 |
| 20260506163532 | 70 | 0 | 0.0 | 0.9 | 0.00 | 0.00 | 0.00 | 55 | 1016.7 |
| 20260506163058 | 70 | 0 | 0.0 | 2.6 | 0.00 | 0.00 | 0.00 | 53 | 1016.7 |
| 20260506162532 | 70 | 0 | 0.0 | 2.6 | 0.00 | 0.00 | 0.00 | 52 | 1016.7 |
| 20260506162033 | 70 | 229 | 1.7 | 3.5 | 0.00 | 0.00 | 0.00 | 51 | 1016.6 |
| 20260506161544 | 70 | 229 | 1.7 | 3.5 | 0.00 | 0.00 | 0.00 | 52 | 1016.7 |
| 20260506161032 | 70 | 0 | 1.7 | 3.5 | 0.00 | 0.00 | 0.00 | 52 | 1016.7 |
| 20260506160535 | 70 | 223 | 1.7 | 4.3 | 0.00 | 0.00 | 0.00 | 52 | 1016.7 |
| 20260506160042 | 70 | 223 | 2.6 | 6.1 | 0.00 | 0.00 | 0.00 | 52 | 1016.7 |
| 20260506155529 | 70 | 229 | 2.6 | 6.1 | 0.00 | 0.00 | 0.00 | 52 | 1016.7 |
| 20260506155029 | 70 | 229 | 2.6 | 4.3 | 0.00 | 0.00 | 0.00 | 51 | 1016.7 |
| 20260506154555 | 70 | 219 | 2.6 | 5.2 | 0.00 | 0.00 | 0.00 | 52 | 1016.8 |
| 20260506154031 | 70 | 246 | 2.6 | 5.2 | 0.00 | 0.00 | 0.00 | 52 | 1016.8 |
| 20260506153531 | 70 | 231 | 3.5 | 7.0 | 0.00 | 0.00 | 0.00 | 52 | 1016.9 |
| 20260506153042 | 70 | 244 | 2.6 | 7.0 | 0.00 | 0.00 | 0.00 | 53 | 1016.8 |
| 20260506152530 | 70 | 261 | 3.5 | 6.1 | 0.00 | 0.00 | 0.00 | 51 | 1016.8 |
| 20260506152032 | 71 | 242 | 3.5 | 6.1 | 0.00 | 0.00 | 0.00 | 51 | 1016.8 |
| 20260506151544 | 71 | 228 | 2.6 | 7.0 | 0.00 | 0.00 | 0.00 | 50 | 1016.9 |
| 20260506151029 | 71 | 223 | 4.3 | 7.8 | 0.00 | 0.00 | 0.00 | 50 | 1016.9 |
| 20260506150530 | 71 | 216 | 4.3 | 7.8 | 0.00 | 0.00 | 0.00 | 49 | 1017.1 |
| 20260506150041 | 71 | 222 | 3.5 | 7.0 | 0.00 | 0.00 | 0.00 | 49 | 1016.9 |
| 20260506145531 | 71 | 238 | 5.2 | 7.8 | 0.00 | 0.00 | 0.00 | 49 | 1017.1 |
| 20260506145034 | 71 | 229 | 3.5 | 10.4 | 0.00 | 0.00 | 0.00 | 49 | 1017.1 |
| 20260506144541 | 71 | 237 | 4.3 | 10.4 | 0.00 | 0.00 | 0.00 | 48 | 1017.1 |
| 20260506144033 | 71 | 242 | 4.3 | 10.4 | 0.00 | 0.00 | 0.00 | 48 | 1017.2 |
| 20260506143533 | 71 | 217 | 4.3 | 10.4 | 0.00 | 0.00 | 0.00 | 50 | 1017.0 |
| 20260506143045 | 71 | 239 | 4.3 | 10.4 | 0.00 | 0.00 | 0.00 | 48 | 1017.1 |
| 20260506142533 | 72 | 217 | 5.2 | 10.4 | 0.00 | 0.00 | 0.00 | 48 | 1017.2 |
| 20260506142034 | 72 | 206 | 5.2 | 9.6 | 0.00 | 0.00 | 0.00 | 48 | 1017.1 |
| 20260506141549 | 72 | 214 | 4.3 | 9.6 | 0.00 | 0.00 | 0.00 | 49 | 1017.2 |
| 20260506141035 | 72 | 230 | 4.3 | 7.0 | 0.00 | 0.00 | 0.00 | 49 | 1017.2 |
| 20260506140535 | 72 | 254 | 4.3 | 7.0 | 0.00 | 0.00 | 0.00 | 48 | 1017.2 |
| 20260506140053 | 72 | 216 | 2.6 | 7.0 | 0.00 | 0.00 | 0.00 | 50 | 1017.3 |
| 20260506135531 | 71 | 225 | 3.5 | 7.0 | 0.00 | 0.00 | 0.00 | 50 | 1017.3 |
| 20260506135032 | 72 | 294 | 4.3 | 7.8 | 0.00 | 0.00 | 0.00 | 48 | 1017.3 |
| 20260506134542 | 72 | 229 | 3.5 | 7.8 | 0.00 | 0.00 | 0.00 | 49 | 1017.3 |
| 20260506134031 | 71 | 242 | 2.6 | 7.8 | 0.00 | 0.00 | 0.00 | 52 | 1017.4 |
| 20260506133531 | 70 | 270 | 3.5 | 7.8 | 0.00 | 0.00 | 0.00 | 53 | 1017.3 |
| 20260506133040 | 70 | 240 | 4.3 | 8.7 | 0.00 | 0.00 | 0.00 | 52 | 1017.5 |
| 20260506132531 | 70 | 301 | 4.3 | 8.7 | 0.00 | 0.00 | 0.00 | 53 | 1017.5 |
| 20260506132032 | 70 | 285 | 3.5 | 8.7 | 0.00 | 0.00 | 0.00 | 54 | 1017.4 |
| 20260506131546 | 71 | 304 | 4.3 | 7.8 | 0.00 | 0.00 | 0.00 | 52 | 1017.4 |
| 20260506131031 | 72 | 326 | 3.5 | 7.0 | 0.00 | 0.00 | 0.00 | 49 | 1017.4 |
| 20260506130531 | 73 | 282 | 2.6 | 6.1 | 0.00 | 0.00 | 0.00 | 50 | 1017.4 |
| 20260506130048 | 73 | 309 | 2.6 | 7.0 | 0.00 | 0.00 | 0.00 | 48 | 1017.4 |
| 20260506125532 | 73 | 257 | 3.5 | 9.6 | 0.00 | 0.00 | 0.00 | 48 | 1017.4 |
| 20260506125030 | 73 | 230 | 5.2 | 9.6 | 0.00 | 0.00 | 0.00 | 48 | 1017.4 |
| 20260506124544 | 73 | 234 | 4.3 | 8.7 | 0.00 | 0.00 | 0.00 | 47 | 1017.5 |
| 20260506124032 | 73 | 227 | 3.5 | 8.7 | 0.00 | 0.00 | 0.00 | 47 | 1017.4 |
| 20260506123531 | 72 | 213 | 4.3 | 8.7 | 0.00 | 0.00 | 0.00 | 47 | 1017.5 |
| 20260506123043 | 72 | 229 | 5.2 | 7.8 | 0.00 | 0.00 | 0.00 | 48 | 1017.5 |
| 20260506122532 | 72 | 204 | 4.3 | 8.7 | 0.00 | 0.00 | 0.00 | 50 | 1017.4 |
| 20260506122033 | 72 | 246 | 5.2 | 8.7 | 0.00 | 0.00 | 0.00 | 48 | 1017.4 |
| 20260506121543 | 72 | 238 | 5.2 | 9.6 | 0.00 | 0.00 | 0.00 | 48 | 1017.5 |
| 20260506121031 | 72 | 235 | 5.2 | 10.4 | 0.00 | 0.00 | 0.00 | 48 | 1017.6 |
| 20260506120531 | 72 | 230 | 6.1 | 10.4 | 0.00 | 0.00 | 0.00 | 48 | 1017.6 |
| 20260506120106 | 72 | 262 | 5.2 | 9.6 | 0.00 | 0.00 | 0.00 | 46 | 1017.7 |
| 20260506115531 | 72 | 240 | 6.1 | 10.4 | 0.00 | 0.00 | 0.00 | 46 | 1017.5 |
| 20260506115031 | 72 | 271 | 6.1 | 12.2 | 0.00 | 0.00 | 0.00 | 44 | 1017.6 |
| 20260506114551 | 72 | 235 | 7.0 | 12.2 | 0.00 | 0.00 | 0.00 | 44 | 1017.8 |
| 20260506114030 | 73 | 236 | 5.2 | 11.3 | 0.00 | 0.00 | 0.00 | 45 | 1017.9 |
| 20260506113530 | 73 | 221 | 5.2 | 11.3 | 0.00 | 0.00 | 0.00 | 44 | 1017.8 |
| 20260506113044 | 73 | 251 | 7.8 | 12.2 | 0.00 | 0.00 | 0.00 | 42 | 1017.8 |
| 20260506112532 | 73 | 242 | 7.8 | 12.2 | 0.00 | 0.00 | 0.00 | 42 | 1017.8 |
| 20260506112029 | 73 | 213 | 6.1 | 11.3 | 0.00 | 0.00 | 0.00 | 43 | 1017.8 |
| 20260506111544 | 73 | 246 | 7.0 | 10.4 | 0.00 | 0.00 | 0.00 | 43 | 1017.7 |
| 20260506111030 | 72 | 219 | 6.1 | 9.6 | 0.00 | 0.00 | 0.00 | 45 | 1017.7 |
| 20260506110530 | 71 | 312 | 4.3 | 8.7 | 0.00 | 0.00 | 0.00 | 45 | 1017.8 |
| 20260506110041 | 71 | 299 | 4.3 | 8.7 | 0.00 | 0.00 | 0.00 | 46 | 1017.7 |
| 20260506105531 | 71 | 290 | 4.3 | 8.7 | 0.00 | 0.00 | 0.00 | 45 | 1017.8 |
| 20260506105031 | 70 | 247 | 4.3 | 8.7 | 0.00 | 0.00 | 0.00 | 46 | 1017.8 |
| 20260506104543 | 70 | 300 | 5.2 | 8.7 | 0.00 | 0.00 | 0.00 | 46 | 1017.8 |
| 20260506104030 | 71 | 265 | 4.3 | 8.7 | 0.00 | 0.00 | 0.00 | 46 | 1017.8 |
| 20260506103530 | 71 | 333 | 4.3 | 8.7 | 0.00 | 0.00 | 0.00 | 47 | 1017.9 |
| 20260506103046 | 71 | 254 | 5.2 | 8.7 | 0.00 | 0.00 | 0.00 | 49 | 1017.9 |
| 20260506102534 | 71 | 313 | 4.3 | 7.8 | 0.00 | 0.00 | 0.00 | 48 | 1017.9 |
| 20260506102029 | 71 | 263 | 1.7 | 7.0 | 0.00 | 0.00 | 0.00 | 52 | 1017.8 |
| 20260506101545 | 70 | 329 | 1.7 | 5.2 | 0.00 | 0.00 | 0.00 | 53 | 1017.9 |
| 20260506101028 | 69 | 347 | 0.9 | 5.2 | 0.00 | 0.00 | 0.00 | 56 | 1017.8 |
| 20260506100530 | 69 | 29 | 2.6 | 5.2 | 0.00 | 0.00 | 0.00 | 59 | 1017.8 |
| 20260506100047 | 68 | 62 | 1.7 | 5.2 | 0.00 | 0.00 | 0.00 | 58 | 1017.9 |
| 20260506095530 | 68 | 46 | 2.6 | 5.2 | 0.00 | 0.00 | 0.00 | 60 | 1018.0 |
| 20260506095031 | 68 | 48 | 2.6 | 7.0 | 0.00 | 0.00 | 0.00 | 62 | 1018.0 |
| 20260506094546 | 68 | 71 | 3.5 | 7.0 | 0.00 | 0.00 | 0.00 | 62 | 1018.1 |
| 20260506094029 | 67 | 19 | 3.5 | 7.0 | 0.00 | 0.00 | 0.00 | 64 | 1018.1 |
| 20260506093532 | 67 | 40 | 3.5 | 7.0 | 0.00 | 0.00 | 0.00 | 64 | 1018.1 |
| 20260506093101 | 67 | 55 | 3.5 | 7.8 | 0.00 | 0.00 | 0.00 | 64 | 1018.1 |
| 20260506092530 | 67 | 49 | 3.5 | 8.7 | 0.00 | 0.00 | 0.00 | 65 | 1018.1 |
| 20260506092030 | 66 | 338 | 3.5 | 8.7 | 0.00 | 0.00 | 0.00 | 65 | 1017.9 |
| 20260506091545 | 66 | 58 | 4.3 | 8.7 | 0.00 | 0.00 | 0.00 | 65 | 1018.1 |
| 20260506091030 | 66 | 51 | 4.3 | 8.7 | 0.00 | 0.00 | 0.00 | 65 | 1018.1 |
| 20260506090529 | 66 | 48 | 4.3 | 8.7 | 0.00 | 0.00 | 0.00 | 66 | 1018.0 |
| 20260506090051 | 66 | 36 | 4.3 | 8.7 | 0.00 | 0.00 | 0.00 | 65 | 1018.2 |
| 20260506085530 | 66 | 38 | 5.2 | 9.6 | 0.00 | 0.00 | 0.00 | 65 | 1018.0 |
| 20260506085030 | 66 | 22 | 4.3 | 9.6 | 0.00 | 0.00 | 0.00 | 65 | 1018.0 |
| 20260506084545 | 66 | 35 | 3.5 | 8.7 | 0.00 | 0.00 | 0.00 | 66 | 1018.0 |
| 20260506084031 | 66 | 61 | 4.3 | 8.7 | 0.00 | 0.00 | 0.00 | 65 | 1018.0 |
| 20260506083531 | 66 | 52 | 3.5 | 9.6 | 0.00 | 0.00 | 0.00 | 66 | 1018.0 |
| 20260506083043 | 65 | 51 | 4.3 | 10.4 | 0.00 | 0.00 | 0.00 | 66 | 1017.9 |
| 20260506082531 | 66 | 57 | 5.2 | 10.4 | 0.00 | 0.00 | 0.00 | 65 | 1017.9 |
| 20260506082030 | 66 | 5 | 4.3 | 8.7 | 0.00 | 0.00 | 0.00 | 65 | 1018.0 |
| 20260506081544 | 65 | 51 | 4.3 | 8.7 | 0.00 | 0.00 | 0.00 | 65 | 1018.0 |
| 20260506081029 | 65 | 53 | 3.5 | 9.6 | 0.00 | 0.00 | 0.00 | 65 | 1017.9 |
| 20260506080529 | 65 | 38 | 4.3 | 9.6 | 0.00 | 0.00 | 0.00 | 64 | 1017.9 |
| 20260506073045 | 63 | 37 | 7.0 | 13.0 | 0.00 | 0.00 | 0.00 | 68 | 1017.7 |
| 20260506072531 | 63 | 53 | 6.1 | 12.2 | 0.00 | 0.00 | 0.00 | 69 | 1017.6 |
| 20260506072029 | 63 | 38 | 7.0 | 12.2 | 0.00 | 0.00 | 0.00 | 69 | 1017.7 |
| 20260506071546 | 63 | 78 | 6.1 | 12.2 | 0.00 | 0.00 | 0.00 | 70 | 1017.6 |
| 20260506071030 | 63 | 37 | 5.2 | 12.2 | 0.00 | 0.00 | 0.00 | 70 | 1017.5 |
| 20260506070533 | 63 | 44 | 6.1 | 12.2 | 0.00 | 0.00 | 0.00 | 70 | 1017.5 |
| 20260506062030 | 63 | 71 | 5.2 | 9.6 | 0.00 | 0.00 | 0.00 | 71 | 1017.4 |
| 20260506061557 | 63 | 76 | 5.2 | 9.6 | 0.00 | 0.00 | 0.00 | 71 | 1017.4 |
| 20260506061030 | 63 | 21 | 5.2 | 9.6 | 0.00 | 0.00 | 0.00 | 71 | 1017.5 |
| 20260506060530 | 63 | 58 | 5.2 | 9.6 | 0.00 | 0.00 | 0.00 | 71 | 1017.5 |
| 20260506051033 | 61 | 0 | 0.9 | 3.5 | 0.00 | 0.00 | 0.00 | 69 | 1017.4 |
| 20260506050530 | 61 | 0 | 0.9 | 3.5 | 0.00 | 0.00 | 0.00 | 67 | 1017.5 |
| 20260506045029 | 59 | 0 | 0.0 | 0.0 | 0.00 | 0.00 | 0.00 | 70 | 1017.6 |
| 20260506044545 | 58 | 0 | 0.0 | 0.0 | 0.00 | 0.00 | 0.00 | 73 | 1017.5 |
| 20260506044031 | 57 | 0 | 0.0 | 0.0 | 0.00 | 0.00 | 0.00 | 75 | 1017.4 |
| 20260506043532 | 56 | 0 | 0.0 | 0.0 | 0.00 | 0.00 | 0.00 | 77 | 1017.3 |
| 20260506043051 | 56 | 0 | 0.0 | 0.0 | 0.00 | 0.00 | 0.00 | 78 | 1017.3 |
| 20260506042532 | 55 | 0 | 0.0 | 0.0 | 0.00 | 0.00 | 0.00 | 80 | 1017.2 |
| 20260506042033 | 54 | 0 | 0.0 | 0.0 | 0.00 | 0.00 | 0.00 | 82 | 1017.2 |
| 20260506041552 | 54 | 0 | 0.0 | 0.0 | 0.00 | 0.00 | 0.00 | 82 | 1017.3 |
| 20260506041032 | 53 | 0 | 0.0 | 0.0 | 0.00 | 0.00 | 0.00 | 82 | 1017.3 |
| 20260506040534 | 53 | 0 | 0.0 | 0.0 | 0.00 | 0.00 | 0.00 | 83 | 1017.2 |
| 20260506040058 | 53 | 0 | 0.0 | 0.9 | 0.00 | 0.00 | 0.00 | 83 | 1017.2 |
| 20260506035532 | 53 | 0 | 0.0 | 2.6 | 0.00 | 0.00 | 0.00 | 83 | 1017.1 |
| 20260506035032 | 53 | 0 | 0.0 | 3.5 | 0.00 | 0.00 | 0.00 | 84 | 1017.1 |
| 20260506034546 | 53 | 0 | 0.9 | 4.3 | 0.00 | 0.00 | 0.00 | 84 | 1017.1 |
| 20260506034030 | 52 | 52 | 0.9 | 4.3 | 0.00 | 0.00 | 0.00 | 84 | 1017.0 |
| 20260506033531 | 51 | 55 | 1.7 | 4.3 | 0.00 | 0.00 | 0.00 | 84 | 1017.0 |
| 20260506033050 | 51 | 55 | 0.9 | 3.5 | 0.00 | 0.00 | 0.00 | 83 | 1017.0 |
| 20260506032532 | 51 | 0 | 0.0 | 1.7 | 0.00 | 0.00 | 0.00 | 82 | 1017.0 |
| 20260506032033 | 51 | 0 | 0.0 | 0.0 | 0.00 | 0.00 | 0.00 | 82 | 1016.7 |
| 20260506031547 | 51 | 0 | 0.0 | 0.0 | 0.00 | 0.00 | 0.00 | 82 | 1016.8 |
| 20260506031032 | 51 | 0 | 0.0 | 0.0 | 0.00 | 0.00 | 0.00 | 82 | 1016.8 |
| 20260506030533 | 51 | 0 | 0.0 | 0.0 | 0.00 | 0.00 | 0.00 | 82 | 1016.7 |
| 20260506030045 | 51 | 0 | 0.0 | 1.7 | 0.00 | 0.00 | 0.00 | 83 | 1016.6 |
| 20260506025533 | 51 | 0 | 0.0 | 3.5 | 0.00 | 0.00 | 0.00 | 83 | 1016.7 |
| 20260506025031 | 50 | 51 | 0.0 | 3.5 | 0.00 | 0.00 | 0.00 | 83 | 1016.6 |
| 20260506024546 | 50 | 0 | 0.0 | 0.9 | 0.00 | 0.00 | 0.00 | 82 | 1016.6 |
| 20260506024033 | 50 | 0 | 0.0 | 0.9 | 0.00 | 0.00 | 0.00 | 82 | 1016.6 |
| 20260506023533 | 50 | 0 | 0.0 | 0.9 | 0.00 | 0.00 | 0.00 | 82 | 1016.6 |
| 20260506023054 | 50 | 0 | 0.0 | 0.0 | 0.00 | 0.00 | 0.00 | 82 | 1016.6 |
| 20260506022531 | 50 | 0 | 0.0 | 0.0 | 0.00 | 0.00 | 0.00 | 82 | 1016.6 |
| 20260506022033 | 50 | 0 | 0.0 | 0.0 | 0.00 | 0.00 | 0.00 | 82 | 1016.6 |
| 20260506021547 | 50 | 0 | 0.0 | 0.9 | 0.00 | 0.00 | 0.00 | 82 | 1016.7 |
| 20260506021031 | 50 | 0 | 0.0 | 0.9 | 0.00 | 0.00 | 0.00 | 81 | 1016.6 |
| 20260506020530 | 51 | 0 | 0.0 | 0.9 | 0.00 | 0.00 | 0.00 | 81 | 1016.7 |
| 20260506020113 | 51 | 0 | 0.0 | 0.0 | 0.00 | 0.00 | 0.00 | 81 | 1016.6 |
| 20260506015534 | 51 | 0 | 0.0 | 0.0 | 0.00 | 0.00 | 0.00 | 81 | 1016.6 |
| 20260506015032 | 51 | 0 | 0.0 | 0.0 | 0.00 | 0.00 | 0.00 | 81 | 1016.8 |
| 20260506014546 | 51 | 0 | 0.0 | 0.0 | 0.00 | 0.00 | 0.00 | 81 | 1016.7 |
| 20260506014031 | 51 | 0 | 0.0 | 1.7 | 0.00 | 0.00 | 0.00 | 81 | 1016.9 |
| 20260506013534 | 51 | 0 | 0.0 | 1.7 | 0.00 | 0.00 | 0.00 | 81 | 1016.7 |
| 20260506013042 | 51 | 0 | 0.0 | 1.7 | 0.00 | 0.00 | 0.00 | 81 | 1016.6 |
| 20260506012531 | 51 | 0 | 0.0 | 0.0 | 0.00 | 0.00 | 0.00 | 81 | 1016.5 |
| 20260506012031 | 51 | 0 | 0.0 | 0.0 | 0.00 | 0.00 | 0.00 | 80 | 1016.5 |
| 20260506011546 | 51 | 0 | 0.0 | 0.0 | 0.00 | 0.00 | 0.00 | 80 | 1016.5 |
| 20260506011030 | 51 | 0 | 0.0 | 0.0 | 0.00 | 0.00 | 0.00 | 80 | 1016.6 |
| 20260506010531 | 51 | 0 | 0.0 | 0.0 | 0.00 | 0.00 | 0.00 | 80 | 1016.6 |
| 20260506010040 | 51 | 0 | 0.0 | 0.0 | 0.00 | 0.00 | 0.00 | 79 | 1016.6 |
| 20260506005530 | 51 | 0 | 0.0 | 0.0 | 0.00 | 0.00 | 0.00 | 79 | 1016.6 |
| 20260506005029 | 51 | 0 | 0.0 | 0.0 | 0.00 | 0.00 | 0.00 | 79 | 1016.7 |
| 20260506004546 | 51 | 0 | 0.0 | 0.0 | 0.00 | 0.00 | 0.00 | 79 | 1016.6 |
| 20260506004034 | 52 | 0 | 0.0 | 0.0 | 0.00 | 0.00 | 0.00 | 78 | 1016.7 |
| 20260506003532 | 52 | 0 | 0.0 | 0.0 | 0.00 | 0.00 | 0.00 | 77 | 1016.7 |
| 20260506003047 | 52 | 0 | 0.0 | 0.0 | 0.00 | 0.00 | 0.00 | 77 | 1016.6 |
| 20260506002532 | 52 | 0 | 0.0 | 0.0 | 0.00 | 0.00 | 0.00 | 77 | 1016.7 |
| 20260506002030 | 52 | 0 | 0.0 | 0.0 | 0.00 | 0.00 | 0.00 | 77 | 1016.7 |
| 20260506001548 | 52 | 0 | 0.0 | 0.0 | 0.00 | 0.00 | 0.00 | 77 | 1016.5 |
| 20260506001032 | 52 | 0 | 0.0 | 0.0 | 0.00 | 0.00 | 0.00 | 76 | 1016.6 |
| 20260506000530 | 52 | 0 | 0.0 | 0.0 | 0.00 | 0.00 | 0.00 | 76 | 1016.7 |
| 20260506000055 | 53 | 0 | 0.0 | 0.0 | 0.00 | 0.00 | 0.00 | 75 | 1016.8 |
| 20260505235534 | 53 | 0 | 0.0 | 0.0 | 0.00 | 0.00 | 0.00 | 75 | 1016.7 |
| 20260505235033 | 53 | 0 | 0.0 | 0.9 | 0.00 | 0.00 | 0.00 | 75 | 1016.7 |
| 20260505234543 | 53 | 0 | 0.0 | 0.9 | 0.00 | 0.00 | 0.00 | 75 | 1016.6 |
| 20260505234031 | 52 | 0 | 0.0 | 0.9 | 0.00 | 0.00 | 0.00 | 74 | 1016.7 |
| 20260505233532 | 52 | 0 | 0.0 | 0.9 | 0.00 | 0.00 | 0.00 | 72 | 1016.7 |
| 20260505233050 | 52 | 0 | 0.0 | 0.0 | 0.00 | 0.00 | 0.00 | 72 | 1016.6 |
| 20260505232534 | 52 | 0 | 0.0 | 1.7 | 0.00 | 0.00 | 0.00 | 72 | 1016.6 |
| 20260505232030 | 52 | 0 | 0.0 | 1.7 | 0.00 | 0.00 | 0.00 | 71 | 1016.6 |
| 20260505231553 | 52 | 0 | 0.0 | 1.7 | 0.00 | 0.00 | 0.00 | 72 | 1016.6 |
| 20260505231033 | 52 | 0 | 0.0 | 1.7 | 0.00 | 0.00 | 0.00 | 72 | 1016.5 |
| 20260505230558 | 52 | 148 | 0.0 | 1.7 | 0.00 | 0.00 | 0.00 | 72 | 1016.4 |
| 20260505230048 | 53 | 0 | 0.0 | 1.7 | 0.00 | 0.00 | 0.00 | 73 | 1016.4 |
| 20260505225530 | 53 | 0 | 0.0 | 1.7 | 0.00 | 0.00 | 0.00 | 73 | 1016.6 |
| 20260505225031 | 53 | 0 | 0.0 | 1.7 | 0.00 | 0.00 | 0.00 | 73 | 1016.5 |
| 20260505224550 | 53 | 148 | 0.0 | 0.9 | 0.00 | 0.00 | 0.00 | 73 | 1016.6 |
| 20260505224030 | 53 | 0 | 0.0 | 2.6 | 0.00 | 0.00 | 0.00 | 73 | 1016.5 |
| 20260505223530 | 53 | 0 | 0.0 | 2.6 | 0.00 | 0.00 | 0.00 | 73 | 1016.6 |
| 20260505223045 | 53 | 0 | 0.0 | 1.7 | 0.00 | 0.00 | 0.00 | 72 | 1016.5 |
| 20260505222530 | 53 | 0 | 0.0 | 1.7 | 0.00 | 0.00 | 0.00 | 72 | 1016.6 |
| 20260505222038 | 53 | 148 | 0.0 | 0.9 | 0.00 | 0.00 | 0.00 | 72 | 1016.7 |
| 20260505221600 | 53 | 0 | 0.0 | 0.9 | 0.00 | 0.00 | 0.00 | 72 | 1016.7 |
| 20260505221030 | 53 | 0 | 0.0 | 1.7 | 0.00 | 0.00 | 0.00 | 71 | 1016.6 |
| 20260505220530 | 53 | 0 | 0.0 | 1.7 | 0.00 | 0.00 | 0.00 | 71 | 1016.6 |
| 20260505220103 | 53 | 0 | 0.0 | 1.7 | 0.00 | 0.00 | 0.00 | 71 | 1016.7 |